[[{"header":{"parameterUnit":"m.s-1","parameterCategory":1,"la1":30.2991,"la2":30.254,"lo1":-89.0895,"lo2":-89.0444,"dy":0.0017,"dx":0.0017,"nx":28,"ny":28,"refTime":"2024-04-18T09:00:00:Z","depth":0,"parameterNumber":2,"parameterNumberName":"U-component_of_WINDS"},"data":[0,0,0,0,0,0,0,0,0,0,0,0,0,0,0,0,0,0,0,0,0,0,0,0,0,0,0,0,0,0,0,0,0,0,0,0,0,0,0,0,0,0,0,0,0,0,0,0,0,0,0,0,0,0,0,0,0,0,-1.2442,-1.2443,0,-1.2559,-1.2561,-1.2562,-1.2602,-1.2602,-1.2602,-1.2601,-1.2724,-1.2728,-1.2731,0,0,0,0,0,0,0,0,0,0,0,0,0,-1.2256,-1.2259,-1.2442,-1.2443,-1.2445,-1.2559,-1.2561,-1.2562,-1.2603,-1.2602,-1.2601,-1.2601,-1.2723,-1.2727,-1.2732,0,0,0,0,0,0,0,0,0,0,0,0,0,-1.2351,-1.226,-1.2442,-1.2478,-1.2483,-1.2559,-1.2561,-1.2563,-1.2603,-1.2602,-1.2601,-1.2601,-1.2721,-1.2727,-1.2732,-1.2781,0,0,-1.2749,-1.2752,0,0,0,0,0,0,0,0,-1.2346,-1.2358,-1.2472,-1.2476,-1.2481,-1.2565,-1.254,-1.2636,-1.2603,-1.2557,-1.2601,-1.26,-1.2672,-1.2682,-1.2705,-1.2787,-1.2792,-1.275,-1.2753,-1.2756,-1.2757,0,0,0,0,0,0,0,-1.2339,-1.2353,-1.2488,-1.2473,-1.2479,-1.249,-1.2503,-1.2559,-1.2617,-1.2561,-1.2564,-1.2578,-1.2675,-1.27,-1.2709,-1.2794,-1.275,-1.2755,-1.2758,-1.276,-1.2922,-1.2923,0,0,0,0,0,0,-1.2326,-1.2348,-1.2485,-1.2492,-1.241,-1.2494,-1.2509,-1.2539,-1.2617,-1.2628,-1.2578,-1.2579,-1.2691,-1.2702,-1.2713,-1.2776,-1.2756,-1.2761,-1.2764,-1.2921,-1.2922,-1.2923,0,0,0,0,0,0,-1.2322,-1.2338,-1.248,-1.2421,-1.244,-1.2498,-1.2532,-1.2542,-1.2567,-1.263,-1.264,-1.2593,-1.2691,-1.2705,-1.2764,-1.2781,-1.2763,-1.2768,-1.292,-1.2922,-1.2923,-1.2901,0,0,0,0,0,0,-1.2316,-1.2336,-1.2354,-1.2421,-1.2443,-1.2528,-1.2533,-1.2545,-1.2576,-1.2579,-1.2646,-1.2657,-1.2691,-1.2755,-1.2769,-1.2788,-1.2773,-1.2919,-1.2921,-1.2923,-1.29,-1.2901,-1.2902,0,0,0,0,0,-1.2309,-1.2344,-1.2355,-1.2371,-1.2466,-1.2528,-1.2541,-1.2579,-1.2577,-1.2597,-1.2637,-1.2655,-1.2776,-1.2761,-1.2777,-1.2798,-1.2918,-1.292,-1.2922,-1.29,-1.2901,-1.2902,0,0,0,0,0,0,-1.2278,-1.2353,-1.2366,-1.2423,-1.2469,-1.2535,-1.2561,-1.2579,-1.2627,-1.2628,-1.2674,-1.2689,-1.2744,-1.2777,-1.2758,-1.2849,-1.2848,-1.2854,-1.2826,-1.2828,-1.2828,-1.2819,-1.2777,0,0,0,0,0,-1.2278,-1.2321,-1.2384,-1.2428,-1.245,-1.2501,-1.253,-1.2555,-1.2605,-1.2625,-1.267,-1.2719,-1.2768,-1.28,-1.2848,-1.2905,-1.2921,-1.2928,-1.2929,-1.2929,-1.2933,-1.2967,-1.2971,-1.2931,-1.2931,-1.2931,0,0,-1.2277,-1.2324,-1.2348,-1.2423,-1.2462,-1.2507,-1.2518,-1.2564,-1.2599,-1.2633,-1.2691,-1.2725,-1.2783,-1.2841,-1.2869,-1.287,-1.2948,-1.2932,-1.2932,-1.2936,-1.297,-1.2974,-1.2977,-1.2932,-1.2932,-1.2932,0,0,-1.23,-1.2339,-1.238,-1.2418,-1.2477,-1.2511,-1.252,-1.2584,-1.2608,-1.2667,-1.2694,-1.2736,-1.282,-1.286,-1.2891,-1.293,-1.2948,-1.2945,-1.295,-1.2982,-1.2985,-1.2988,-1.3003,-1.3008,-1.2949,-1.2949,-1.2949,0,-1.2293,-1.236,-1.2399,-1.2444,-1.2477,-1.2509,-1.2552,-1.2588,-1.266,-1.2682,-1.2682,-1.2789,-1.283,-1.2898,-1.2908,-1.2932,-1.2946,-1.2937,-1.2981,-1.2985,-1.2988,-1.3003,-1.3008,-1.2948,-1.2948,-1.2948,-1.2948,0,-1.2349,-1.2395,-1.2422,-1.2489,-1.2525,-1.2569,-1.2615,-1.2647,-1.267,-1.2704,-1.2764,-1.2815,-1.2875,-1.2893,-1.2915,-1.2965,-1.2964,-1.2972,-1.2972,-1.2991,-1.3005,-1.3011,-1.2947,-1.2947,-1.2947,-1.2948,0,0,-1.2354,-1.2443,-1.2452,-1.2484,-1.2551,-1.2588,-1.2634,-1.2692,-1.2719,-1.2768,-1.2808,-1.2879,-1.2887,-1.2923,-1.295,-1.2978,-1.3007,-1.2984,-1.2986,-1.2987,-1.3066,-1.306,-1.3066,-1.302,-1.3021,-1.3022,-1.3062,0,-1.2386,-1.2468,-1.2505,-1.2571,-1.2616,-1.2648,-1.2688,-1.2734,-1.2768,-1.2811,-1.2849,-1.2898,-1.2905,-1.2927,-1.2956,-1.2997,-1.3024,-1.2995,-1.3059,-1.3061,-1.3044,-1.3073,-1.3067,-1.3102,-1.3068,-1.3069,-1.3069,0,-1.2434,-1.2482,-1.2552,-1.2615,-1.2635,-1.267,-1.2727,-1.2768,-1.2821,-1.2844,-1.2884,-1.291,-1.2961,-1.2958,-1.3029,-1.3009,-1.3037,-1.3062,-1.3064,-1.3072,-1.3066,-1.3082,-1.3114,-1.3119,-1.3078,-1.3078,-1.3077,0,-1.2432,-1.2514,-1.2567,-1.2593,-1.2667,-1.2691,-1.2724,-1.2777,-1.2809,-1.2859,-1.2882,-1.2937,-1.2967,-1.301,-1.3052,-1.3045,-1.312,-1.3119,-1.3141,-1.314,-1.3155,-1.3154,-1.3192,-1.3173,-1.3173,-1.3173,-1.3173,0,-1.2464,-1.2506,-1.2567,-1.26,-1.2648,-1.2691,-1.2738,-1.2773,-1.282,-1.2861,-1.2892,-1.293,-1.2982,-1.3028,-1.306,-1.3115,-1.3129,-1.3149,-1.3157,-1.3147,-1.3144,-1.3166,-1.3165,-1.3174,-1.3174,-1.3174,-1.3173,0,-1.247,-1.2512,-1.2572,-1.2637,-1.2655,-1.2688,-1.2745,-1.2778,-1.2813,-1.2865,-1.288,-1.2935,-1.299,-1.3035,-1.3107,-1.3129,-1.3187,-1.3196,-1.3168,-1.3173,-1.3192,-1.319,-1.3246,-1.3256,-1.3229,-1.3229,-1.323,0,-1.2487,-1.252,-1.2589,-1.2618,-1.2649,-1.2696,-1.273,-1.2773,-1.2807,-1.2871,-1.2898,-1.2955,-1.3002,-1.3089,-1.3136,-1.3192,-1.3203,-1.3219,-1.3212,-1.32,-1.3204,-1.3202,-1.3206,-1.322,-1.322,-1.322,-1.322,0,-1.2514,-1.2534,-1.258,-1.2634,-1.2673,-1.2719,-1.2765,-1.2787,-1.284,-1.2876,-1.2932,-1.2969,-1.3043,-1.3099,-1.316,-1.3195,-1.3217,-1.3222,-1.323,-1.3219,-1.3202,-1.3212,-1.317,-1.322,-1.322,-1.322,-1.322,-1.322,-1.2527,-1.2558,-1.2611,-1.2663,-1.2702,-1.2744,-1.2779,-1.2818,-1.2865,-1.2928,-1.2951,-1.3009,-1.3063,-1.3147,-1.3182,-1.3228,-1.3231,-1.3242,-1.3246,-1.3248,-1.3247,-1.3194,-1.324,-1.324,-1.324,-1.324,-1.324,0,-1.2556,-1.2592,-1.2639,-1.2702,-1.2742,-1.2758,-1.281,-1.2844,-1.2893,-1.2942,-1.2988,-1.3053,-1.3108,-1.316,-1.3218,-1.3245,-1.3257,-1.3259,-1.3258,-1.3266,-1.3241,-1.3228,-1.3249,-1.3249,-1.3249,-1.3249,-1.3249,-1.3249,-1.2576,-1.263,-1.2656,-1.273,-1.2766,-1.2822,-1.285,-1.289,-1.2929,-1.3,-1.3045,-1.3078,-1.3129,-1.3191,-1.3243,-1.3257,-1.3277,-1.3277,-1.3293,-1.3269,-1.3267,-1.3266,-1.3254,-1.328,-1.3281,-1.3315,-1.3315,-1.3315]},{"header":{"parameterUnit":"m.s-1","parameterCategory":1,"la1":30.2991,"la2":30.254,"lo1":-89.0895,"lo2":-89.0444,"dy":0.0017,"dx":0.0017,"nx":28,"ny":28,"refTime":"2024-04-18T09:00:00:Z","depth":0,"parameterNumber":3,"parameterNumberName":"V-component_of_WINDS"},"data":[0,0,0,0,0,0,0,0,0,0,0,0,0,0,0,0,0,0,0,0,0,0,0,0,0,0,0,0,0,0,0,0,0,0,0,0,0,0,0,0,0,0,0,0,0,0,0,0,0,0,0,0,0,0,0,0,0,0,1.405,1.405,0,1.4081,1.4081,1.4081,1.4088,1.4088,1.4088,1.4088,1.4121,1.4122,1.4123,0,0,0,0,0,0,0,0,0,0,0,0,0,1.4,1.4001,1.405,1.405,1.4051,1.4081,1.4081,1.4081,1.4088,1.4088,1.4088,1.4088,1.4121,1.4122,1.4123,0,0,0,0,0,0,0,0,0,0,0,0,0,1.4025,1.4001,1.405,1.4058,1.4059,1.408,1.4081,1.4082,1.4088,1.4088,1.4088,1.4087,1.412,1.4122,1.4123,1.414,0,0,1.4128,1.4129,0,0,0,0,0,0,0,0,1.4024,1.4027,1.4056,1.4057,1.4058,1.408,1.4076,1.4101,1.4089,1.4077,1.4088,1.4087,1.4108,1.411,1.4117,1.4142,1.4143,1.4129,1.413,1.413,1.4131,0,0,0,0,0,0,0,1.4022,1.4026,1.4062,1.4057,1.4058,1.4061,1.4064,1.4081,1.4094,1.4078,1.4079,1.4082,1.4108,1.4115,1.4118,1.4144,1.4128,1.413,1.4131,1.4132,1.4186,1.4186,0,0,0,0,0,0,1.4019,1.4024,1.4061,1.4063,1.404,1.4062,1.4065,1.4074,1.4094,1.4097,1.4082,1.4082,1.4113,1.4116,1.4119,1.4141,1.413,1.4132,1.4133,1.4185,1.4186,1.4186,0,0,0,0,0,0,1.4018,1.4022,1.406,1.4044,1.4049,1.4063,1.4072,1.4074,1.4081,1.4097,1.41,1.4087,1.4113,1.4117,1.4135,1.4143,1.4132,1.4134,1.4185,1.4186,1.4186,1.4185,0,0,0,0,0,0,1.4016,1.4021,1.4027,1.4044,1.405,1.4075,1.4073,1.4075,1.4084,1.4084,1.4102,1.4105,1.4113,1.4133,1.4137,1.4145,1.4135,1.4184,1.4185,1.4186,1.4185,1.4186,1.4187,0,0,0,0,0,1.4014,1.4026,1.4027,1.4032,1.4057,1.4075,1.4078,1.4087,1.4084,1.4091,1.4101,1.4104,1.4141,1.4135,1.4139,1.4148,1.4184,1.4185,1.4186,1.4184,1.4186,1.4187,0,0,0,0,0,0,1.401,1.4028,1.403,1.4047,1.4059,1.4076,1.4084,1.4088,1.4101,1.4101,1.4112,1.4116,1.4134,1.4143,1.4135,1.4166,1.4163,1.4165,1.416,1.4161,1.4162,1.416,1.4137,0,0,0,0,0,1.401,1.4023,1.4038,1.4052,1.4058,1.407,1.4078,1.4084,1.4097,1.4103,1.4114,1.4128,1.4143,1.4152,1.4167,1.4186,1.4191,1.4194,1.4195,1.4196,1.4198,1.4211,1.4213,1.419,1.419,1.419,0,0,1.4012,1.4024,1.4031,1.4051,1.4061,1.4075,1.4074,1.4088,1.4099,1.4105,1.4123,1.4132,1.4149,1.4168,1.4177,1.4176,1.4206,1.4197,1.4198,1.4199,1.4212,1.4214,1.4216,1.4191,1.419,1.419,0,0,1.4023,1.4032,1.4045,1.4056,1.4071,1.408,1.4083,1.4099,1.4106,1.4124,1.413,1.4143,1.4168,1.418,1.4189,1.4206,1.421,1.421,1.4216,1.4228,1.423,1.4232,1.424,1.4242,1.4212,1.4212,1.4212,0,1.4024,1.4043,1.4052,1.4066,1.4075,1.4081,1.4095,1.4105,1.4125,1.4132,1.413,1.4163,1.4174,1.4197,1.4201,1.4208,1.4213,1.4208,1.4229,1.4231,1.4233,1.424,1.4243,1.4212,1.4212,1.4212,1.4212,0,1.4044,1.4058,1.4067,1.4086,1.4096,1.411,1.4122,1.4132,1.4137,1.4146,1.4166,1.4179,1.4197,1.4203,1.4208,1.4228,1.4227,1.4227,1.4224,1.4235,1.4242,1.4245,1.4212,1.4212,1.4212,1.4212,0,0,1.4052,1.4076,1.4079,1.4089,1.4107,1.4119,1.4134,1.4151,1.416,1.4174,1.4188,1.421,1.421,1.4221,1.4227,1.4238,1.4253,1.4237,1.4238,1.4241,1.4278,1.4278,1.4281,1.4255,1.4256,1.4256,1.4277,0,1.4066,1.4092,1.4101,1.4123,1.4137,1.4144,1.4157,1.4171,1.418,1.4194,1.4205,1.422,1.4219,1.4226,1.4237,1.4249,1.4261,1.4247,1.427,1.4271,1.4267,1.4285,1.4285,1.4303,1.428,1.428,1.428,0,1.4085,1.41,1.4123,1.4141,1.4148,1.4159,1.4177,1.419,1.4206,1.4212,1.4225,1.4231,1.4249,1.4244,1.427,1.4261,1.4271,1.4278,1.4279,1.4282,1.4277,1.429,1.4309,1.4313,1.4285,1.4284,1.4284,0,1.409,1.4115,1.4133,1.4141,1.4162,1.4171,1.418,1.4196,1.4206,1.4222,1.423,1.4247,1.4257,1.4272,1.4283,1.4279,1.4309,1.4304,1.4316,1.4315,1.4322,1.4321,1.4345,1.4326,1.4326,1.4326,1.4326,0,1.4105,1.412,1.4136,1.4147,1.4164,1.4175,1.4192,1.4202,1.4216,1.4231,1.4237,1.4251,1.4265,1.4281,1.429,1.4311,1.4315,1.4322,1.4324,1.4322,1.4321,1.4329,1.4328,1.4327,1.4327,1.4327,1.4327,0,1.4114,1.4125,1.4145,1.4164,1.4169,1.4181,1.4198,1.421,1.4219,1.4238,1.4243,1.4259,1.4278,1.4291,1.4315,1.4321,1.4345,1.4346,1.4339,1.434,1.4351,1.4351,1.4381,1.4387,1.4364,1.4364,1.4364,0,1.4123,1.4134,1.4154,1.4164,1.4174,1.4189,1.42,1.4212,1.4223,1.4244,1.4253,1.4273,1.4289,1.432,1.4335,1.4354,1.4357,1.4366,1.436,1.4358,1.4359,1.4359,1.4361,1.4368,1.4368,1.4368,1.4368,0,1.4138,1.4143,1.4158,1.4176,1.4189,1.4204,1.4218,1.4226,1.4241,1.4254,1.4273,1.4286,1.4311,1.4332,1.4353,1.4364,1.4369,1.437,1.4374,1.4372,1.4368,1.4372,1.4343,1.4369,1.4369,1.4369,1.4369,1.4369,1.4148,1.4159,1.4175,1.4193,1.4205,1.4219,1.4232,1.4243,1.426,1.4281,1.4287,1.4308,1.4326,1.4355,1.4367,1.4385,1.4384,1.4389,1.439,1.4392,1.4393,1.4364,1.4388,1.4388,1.4388,1.4388,1.4388,0,1.4165,1.4176,1.4192,1.4212,1.4226,1.4229,1.4246,1.4258,1.4276,1.4292,1.4309,1.4333,1.4353,1.4369,1.439,1.4402,1.4405,1.4407,1.4407,1.441,1.4391,1.4387,1.4404,1.4404,1.4404,1.4404,1.4404,1.4404,1.4175,1.4195,1.4202,1.4229,1.424,1.4261,1.427,1.4284,1.4297,1.4323,1.434,1.435,1.4367,1.439,1.441,1.4414,1.4422,1.4424,1.4429,1.4412,1.4411,1.4409,1.4405,1.4425,1.4425,1.4446,1.4447,1.4447]}]]